Wind_Speed
12 13 13 13 13 14 14 14 14 14 15 15 15 15 14 14 14 14 14 14 14 14 15 15 15 15 16 16 17 17 16 16 16 16 15 16 16 16 17 17 17 17 17 17 17 18 17 17 17 16 16 16 16 16 16 17 16 17 18 20 22 21 19 16 16 18 21 20 19 20 21 23 22 21 23 25 23 22 22 21 21 22 21 21 21 21 21 22
14 14 15 15 15 15 15 15 15 16 16 16 17 17 17 16 16 16 16 16 16 16 16 16 17 17 17 18 18 18 18 17 17 18 18 17 17 17 17 17 18 18 18 18 18 19 20 19 19 19 19 18 18 18 18 18 18 19 21 24 24 21 20 19 17 19 21 22 23 23 23 25 24 23 25 26 24 23 21 19 20 21 19 21 24 24 23 22
16 16 16 17 17 17 17 17 17 17 17 18 18 18 18 18 18 18 18 17 17 17 18 18 18 18 18 19 19 20 19 18 17 18 19 18 18 17 17 18 18 18 19 19 19 20 20 21 21 21 21 20 20 20 21 21 21 22 24 27 25 21 22 22 19 19 20 23 25 25 25 26 24 24 26 27 26 24 20 18 21 22 21 22 23 24 24 22
17 18 18 18 18 18 18 18 18 19 19 19 19 19 19 20 20 19 19 19 19 19 19 20 20 19 19 19 20 20 20 19 18 18 18 17 16 16 17 17 17 17 17 18 19 19 20 21 22 23 23 23 22 22 22 22 22 25 27 28 25 22 24 23 19 20 22 24 26 26 27 26 24 25 27 28 29 26 20 19 22 24 23 22 21 22 24 25
19 19 19 19 19 19 19 19 20 20 20 20 21 21 21 21 21 21 21 21 21 21 21 21 22 22 21 21 21 21 22 19 17 17 16 16 16 16 16 17 17 18 18 18 19 19 20 21 22 23 24 24 24 24 23 22 23 28 30 29 26 26 27 24 21 22 23 25 27 27 27 27 27 27 27 29 31 28 22 21 24 26 25 22 22 23 24 26
20 20 20 20 20 20 20 20 21 21 21 22 22 22 22 22 22 22 22 22 22 22 23 23 23 23 23 23 23 23 24 19 16 19 19 18 19 19 19 19 20 21 22 21 21 21 20 21 22 22 23 25 26 26 25 24 25 29 31 30 28 27 29 27 25 25 26 28 28 27 28 28 29 29 29 32 31 27 24 23 25 26 25 24 23 24 25 27
21 21 21 22 22 22 22 21 22 22 22 23 23 23 23 23 23 23 23 23 23 23 24 24 24 24 24 25 25 26 27 21 18 22 22 21 22 21 21 21 22 23 24 23 22 21 21 21 21 21 24 25 27 27 27 26 28 31 33 32 29 29 31 29 28 29 29 30 30 29 30 30 31 31 33 35 32 27 25 24 25 25 25 26 26 25 26 26
22 23 23 23 24 23 23 23 23 24 24 24 24 25 25 25 25 25 24 24 24 24 24 24 24 24 25 26 26 28 29 22 20 23 22 21 21 21 21 21 21 22 23 24 23 22 22 22 21 21 23 24 26 28 27 28 30 33 34 32 31 32 32 31 32 33 32 32 32 32 32 31 32 34 37 37 32 27 26 26 26 27 27 28 28 28 27 27
23 24 24 24 25 25 25 24 25 25 25 26 26 26 26 27 27 26 26 25 25 25 25 25 25 25 26 26 28 30 27 20 20 22 22 21 21 21 22 22 23 23 24 24 24 25 25 23 21 21 23 24 27 29 29 30 32 34 33 33 34 34 33 34 35 35 35 35 35 36 35 33 33 37 40 37 30 27 28 28 28 29 31 30 30 30 29 29
25 25 26 26 26 26 25 25 25 26 26 26 27 27 27 28 28 27 27 27 27 27 26 26 26 26 27 27 29 32 24 20 22 23 23 23 23 24 24 25 26 26 26 26 27 27 26 25 25 25 26 27 28 30 30 31 33 34 34 35 36 36 36 37 38 37 37 37 38 39 38 36 36 41 42 35 30 30 30 30 30 32 32 31 31 31 32 33
27 27 27 27 28 27 27 27 27 27 27 27 27 28 28 28 28 28 28 28 28 28 28 28 28 28 28 28 31 31 24 23 26 25 25 25 25 26 26 27 28 28 28 28 27 27 27 27 27 28 28 28 29 31 32 33 34 34 34 36 36 36 37 39 39 38 38 40 40 41 41 40 39 42 42 35 33 34 34 33 32 33 33 32 33 33 35 35
27 27 28 28 29 29 29 29 29 29 29 29 29 29 30 30 30 29 29 29 29 29 29 29 29 29 30 31 31 29 26 27 27 26 26 25 25 27 27 28 29 30 30 29 28 28 28 28 29 29 28 29 30 31 33 34 35 34 34 37 38 39 40 40 40 39 40 41 42 41 41 42 41 42 40 36 36 37 37 37 35 36 35 35 36 37 38 38
27 27 27 28 28 29 29 30 30 30 30 30 30 31 31 31 31 31 30 31 31 31 31 31 31 30 32 32 29 27 28 28 27 26 25 25 26 27 27 29 30 30 31 30 30 29 29 29 30 29 28 29 30 31 34 36 37 36 36 39 41 42 43 42 39 39 39 40 43 41 40 45 44 41 38 37 39 40 40 40 39 40 40 40 40 41 42 41
26 26 27 27 27 28 28 29 29 29 30 30 30 31 31 31 31 31 31 31 31 32 31 31 32 31 33 33 29 29 29 28 28 26 26 26 26 25 26 27 29 29 30 30 29 29 29 29 29 29 28 28 28 30 35 38 38 37 38 41 41 42 45 42 38 40 41 41 44 41 41 48 48 42 40 39 41 43 44 43 42 43 44 44 43 43 44 43
26 26 26 26 26 26 27 27 28 28 28 29 29 29 29 29 30 30 30 30 30 30 30 31 31 31 33 33 29 29 29 27 26 25 26 26 25 26 26 27 28 28 29 29 29 30 30 31 30 29 28 27 27 30 35 38 37 35 37 40 39 42 45 43 38 38 40 42 43 42 44 50 50 46 42 41 44 45 46 46 44 43 44 45 45 44 45 45
26 26 25 26 26 26 26 26 26 26 26 27 27 27 27 27 27 27 27 27 27 28 28 29 29 29 32 31 29 28 27 25 23 22 23 24 26 27 28 28 28 27 28 29 30 30 31 30 29 28 28 28 27 30 36 37 35 35 38 40 41 42 44 43 39 37 40 44 45 45 48 53 52 49 46 44 44 46 47 47 45 43 43 44 45 44 44 44
26 26 26 26 26 26 26 26 26 26 26 26 26 26 26 26 25 25 25 26 26 27 27 28 29 31 31 30 28 25 22 21 20 21 22 24 26 28 28 29 29 28 28 28 29 29 30 31 31 32 31 29 29 31 33 33 36 39 39 40 41 40 40 41 41 39 41 45 47 48 52 56 55 51 49 46 43 44 46 47 46 45 44 43 43 43 42 41
26 26 26 27 27 27 26 26 26 26 26 27 27 27 27 27 27 27 27 27 28 28 29 30 29 31 29 26 25 23 22 24 25 26 26 27 29 30 30 31 31 31 30 30 32 33 34 36 37 35 33 33 32 33 35 35 39 41 39 40 41 40 39 40 42 41 40 45 48 49 54 57 56 52 50 47 43 44 46 47 47 46 44 43 41 40 39 38
27 26 27 27 27 27 28 28 28 28 28 28 29 29 29 30 30 31 30 30 30 30 31 31 31 31 30 28 29 30 29 28 28 28 28 29 30 32 32 32 33 32 32 33 36 36 37 39 39 37 37 38 37 37 39 39 40 40 39 40 41 42 44 42 43 41 38 46 50 49 55 57 55 52 49 47 45 45 47 45 45 45 44 41 37 37 36 36
27 27 27 27 27 28 29 29 29 30 29 29 30 31 31 32 33 34 34 34 33 33 34 34 35 36 36 34 34 32 30 28 27 26 27 29 31 33 34 34 35 35 34 35 36 37 38 40 40 40 41 40 38 37 38 37 36 38 39 40 41 44 47 43 41 39 38 47 54 51 55 58 55 53 50 47 46 46 46 44 44 43 41 37 34 35 36 37
27 28 28 28 28 28 29 29 30 30 31 31 31 32 32 34 35 36 38 38 36 36 37 37 38 40 37 35 34 31 29 28 26 26 26 28 31 33 36 36 37 37 36 35 36 38 39 40 41 40 39 37 36 35 35 36 35 36 38 39 42 44 46 46 43 41 37 45 54 50 54 59 54 52 50 46 46 47 46 41 37 35 34 35 36 36 35 33
27 28 28 28 28 28 29 29 30 30 31 31 31 32 32 33 35 37 40 43 41 38 39 39 40 42 38 34 34 31 30 30 28 28 28 30 32 34 37 38 38 39 37 35 37 39 39 40 39 36 34 33 33 32 32 33 33 35 35 38 43 43 46 49 44 39 36 41 50 49 55 60 54 53 51 46 46 41 35 30 27 31 34 37 37 32 25 19
28 28 28 28 28 28 28 29 29 29 30 30 30 31 32 32 34 35 39 44 45 40 39 40 40 41 36 33 33 31 33 34 32 32 31 33 34 34 37 38 38 39 37 37 39 41 39 38 36 32 31 31 32 31 30 33 37 38 38 38 44 43 43 48 43 37 35 39 45 46 54 61 52 43 32 25 28 25 24 29 32 37 38 34 28 18 12 14
30 30 30 30 30 29 28 28 28 28 28 29 29 29 30 31 31 33 36 41 46 43 38 38 39 38 34 32 33 33 34 35 35 33 29 30 30 30 32 33 35 37 36 37 39 42 41 37 35 34 34 33 33 33 31 34 39 40 39 38 41 39 35 40 40 37 36 36 36 38 49 51 29 11 6 12 23 30 33 38 40 37 29 17 10 8 14 22
31 31 31 32 31 30 29 28 27 27 27 27 27 27 27 28 28 31 33 38 46 45 38 36 36 34 31 29 30 30 32 31 28 23 19 20 21 24 27 28 31 34 33 34 36 40 40 32 30 32 30 28 29 29 26 28 35 38 34 29 30 31 30 34 33 33 35 29 24 25 29 27 12 7 20 31 36 40 37 35 31 19 6 2 5 15 20 19
32 32 32 32 32 31 30 29 28 28 28 27 27 26 26 27 28 29 32 37 44 42 31 25 24 22 20 19 18 19 21 18 14 13 13 16 19 22 26 26 29 30 30 30 31 34 33 25 24 26 23 20 21 23 22 22 29 34 28 22 23 26 29 31 27 26 26 22 23 21 14 22 33 33 36 38 36 35 29 23 14 2 5 7 19 25 18 11
28 29 31 32 32 32 32 31 30 30 30 28 28 27 27 27 27 28 29 27 29 25 16 10 11 11 11 8 9 10 11 10 11 14 15 17 20 23 26 27 26 26 26 26 26 27 24 20 20 22 21 20 21 22 21 18 25 31 27 23 24 26 27 29 27 25 27 31 33 26 14 22 41 42 35 35 32 25 18 9 1 6 6 18 24 24 15 12
24 24 26 29 31 33 33 31 31 32 32 30 29 28 28 27 27 26 20 11 10 11 8 5 6 6 6 7 8 11 13 15 18 19 18 20 23 24 25 25 24 24 24 25 28 27 22 21 23 24 25 26 27 24 20 20 24 27 25 25 25 25 26 28 29 28 30 32 25 16 7 11 34 45 33 30 24 15 11 2 7 4 11 23 23 16 12 12
22 23 23 25 28 29 30 30 30 31 31 30 28 27 28 27 26 23 13 7 9 11 9 8 8 8 8 10 14 17 19 22 22 21 19 20 22 22 22 21 20 22 22 24 29 26 21 24 26 27 29 31 29 23 20 21 22 23 24 27 26 25 27 26 27 29 25 22 17 12 6 6 29 43 25 18 15 6 6 1 5 10 20 27 19 10 12 13
23 23 23 25 27 26 26 27 27 29 29 27 25 24 23 22 21 16 9 10 12 11 11 11 11 12 15 16 18 20 21 22 22 20 19 20 21 22 22 22 22 23 23 24 27 24 23 27 29 32 33 31 26 21 22 22 22 25 26 28 28 27 30 27 27 25 13 14 21 21 15 9 18 25 10 5 1 6 8 17 20 27 27 23 16 12 12 12
25 25 26 27 28 26 26 25 25 27 27 27 25 22 20 19 17 10 7 13 16 14 16 15 12 14 17 17 18 17 18 19 18 19 20 21 22 23 23 23 21 21 23 25 26 24 26 30 32 34 32 28 26 24 26 27 26 28 27 28 26 20 19 16 14 11 3 9 20 18 14 11 16 19 10 6 11 16 27 28 25 30 28 17 13 14 14 16
27 28 29 30 30 29 28 26 25 26 27 28 25 21 20 17 17 21 19 17 11 6 8 8 7 9 10 13 15 15 17 19 19 20 22 23 24 24 24 22 19 18 20 24 26 29 33 35 33 33 32 30 29 28 28 30 31 30 27 26 17 8 7 4 2 3 5 12 18 14 10 15 29 42 36 32 35 30 27 28 27 29 27 20 18 22 24 28
30 31 32 33 33 31 30 27 26 27 28 28 24 21 18 12 18 29 30 24 14 10 12 13 14 14 13 16 17 17 19 19 18 18 19 22 24 24 23 23 22 22 23 26 29 30 31 33 31 31 32 29 27 27 26 29 28 23 22 22 12 3 2 3 3 3 6 14 19 16 12 15 29 44 40 36 39 36 34 39 39 33 31 31 30 32 31 24
32 34 35 35 35 34 32 29 27 26 25 25 23 20 18 20 25 28 26 27 25 24 27 28 27 24 22 23 22 21 21 20 20 21 23 25 26 28 28 28 29 29 28 28 28 25 21 25 29 27 25 25 25 25 24 26 25 22 21 19 17 15 10 5 4 4 7 14 15 9 8 8 18 34 41 43 48 52 49 48 49 46 44 40 32 27 22 14
36 38 37 37 37 35 33 29 26 24 22 21 21 20 26 34 35 30 27 29 27 26 29 31 31 30 31 32 30 28 27 26 26 27 28 30 31 32 32 33 32 30 27 23 24 24 21 26 30 24 19 22 24 23 21 22 23 24 21 18 22 27 22 15 14 18 18 14 11 12 14 21 34 48 55 54 54 55 51 48 48 42 38 37 27 17 12 7
39 39 39 39 37 34 31 28 24 22 22 21 21 28 39 43 37 31 29 27 23 22 23 25 27 29 29 29 29 27 26 26 26 26 27 28 30 31 32 32 31 29 29 28 29 28 23 24 27 23 18 18 20 21 21 21 19 16 16 21 26 26 24 21 19 22 20 11 12 19 26 35 42 47 53 54 52 51 49 47 44 35 28 27 20 12 9 7
39 39 39 39 36 31 30 27 23 21 22 24 29 37 45 46 42 39 37 33 31 27 24 24 26 26 23 22 24 24 21 19 20 21 23 23 23 26 29 29 29 31 31 30 32 32 27 28 33 34 30 25 23 25 26 27 25 21 22 30 30 20 20 20 10 7 9 7 10 19 28 34 29 31 47 54 51 50 48 47 44 33 18 16 18 18 20 21
38 38 39 38 34 30 28 26 23 23 24 29 38 43 44 44 43 42 40 40 39 37 34 32 29 28 26 26 28 26 21 19 18 18 21 22 21 24 26 26 27 28 28 27 31 32 28 27 32 37 36 31 28 31 33 33 33 32 34 36 29 17 15 16 9 3 5 6 7 13 23 29 28 34 48 52 50 50 49 44 38 27 17 19 29 35 35 35
36 36 38 38 33 28 27 25 24 24 27 33 40 43 45 46 45 44 42 41 40 37 36 35 32 30 30 31 32 30 27 26 23 21 21 21 20 21 21 20 19 19 20 24 28 30 27 21 22 32 37 34 29 30 36 39 36 33 32 31 30 27 24 23 18 12 8 7 9 11 14 18 27 38 44 44 47 51 51 46 39 33 29 30 34 39 41 39
33 34 37 36 31 27 26 24 25 27 32 39 43 45 47 48 47 47 45 43 41 38 37 38 35 33 34 35 35 34 32 31 30 30 29 27 27 27 24 23 24 22 21 24 27 29 29 25 25 33 37 37 35 35 40 43 36 31 29 27 29 31 30 25 23 24 21 11 6 8 10 14 25 33 38 44 48 48 49 48 41 34 29 28 31 37 42 40
29 32 35 33 29 26 23 24 27 30 35 40 43 45 47 47 47 47 45 43 41 39 38 38 37 37 37 36 36 36 33 33 34 34 33 34 33 32 29 27 27 26 26 28 30 30 29 28 28 30 32 38 42 42 43 42 37 34 33 31 32 33 30 20 15 26 32 21 14 12 9 16 26 30 35 44 46 45 45 45 44 41 37 37 37 38 41 43
28 30 30 28 26 23 22 25 28 31 36 39 40 42 44 44 45 45 44 44 42 40 39 39 40 41 40 39 39 38 35 36 38 37 37 39 38 36 36 33 29 28 29 31 32 32 32 30 30 32 37 42 44 43 42 41 40 40 37 35 33 30 30 23 14 21 29 26 24 21 12 16 27 31 35 39 41 43 45 46 48 48 48 47 46 44 44 45
28 29 28 27 27 24 22 26 29 31 36 37 38 40 41 42 43 42 43 44 42 41 40 40 40 40 39 39 38 38 38 39 41 42 42 43 42 42 40 35 32 33 34 35 34 33 33 30 30 35 39 40 41 43 45 45 44 42 40 40 38 34 36 35 31 30 25 19 21 17 9 12 17 23 30 31 32 37 42 45 47 49 51 52 53 53 51 48
28 28 28 28 27 25 26 29 32 33 35 35 36 38 39 40 41 40 42 44 43 42 41 39 39 38 38 39 38 39 40 37 35 38 38 36 36 38 36 31 30 31 32 32 30 29 28 25 24 24 20 20 24 27 32 38 38 34 31 29 30 33 33 32 35 33 20 18 25 16 9 17 23 25 31 32 33 39 42 44 46 49 53 55 56 57 55 53
26 26 26 26 26 27 29 31 32 33 33 33 34 35 36 39 40 39 40 43 44 43 42 40 39 39 39 39 40 41 41 38 36 36 38 38 37 36 36 34 31 31 31 32 34 34 33 30 28 21 10 8 11 12 15 21 23 23 23 20 21 25 26 25 31 27 15 20 30 22 17 29 34 32 35 37 37 40 43 46 48 50 53 54 54 54 55 54
24 25 25 25 25 27 30 30 30 33 33 33 34 34 36 39 40 39 40 43 44 43 42 42 41 41 41 41 40 40 40 41 39 38 40 42 40 37 36 36 34 33 33 34 35 35 31 29 31 31 26 24 26 27 27 27 27 31 33 33 33 35 35 34 31 27 26 29 31 31 34 38 38 37 41 43 43 43 44 47 50 52 54 55 55 56 57 57
25 25 25 24 23 24 27 28 29 32 33 34 35 35 36 38 39 39 40 41 42 41 41 43 44 43 43 43 42 40 41 42 42 42 44 44 44 43 42 41 40 38 38 38 39 38 35 33 35 37 37 36 38 41 42 40 38 38 37 38 39 37 35 35 34 35 36 29 25 34 42 40 39 42 45 48 50 50 50 51 54 57 58 59 59 59 59 57
26 27 26 26 26 26 27 28 29 30 31 33 35 36 36 38 39 39 40 39 39 39 39 40 42 43 43 43 40 38 40 41 42 43 43 42 41 42 41 41 40 40 40 39 39 39 38 39 43 43 41 41 43 44 44 40 36 33 32 34 35 34 35 39 42 43 40 31 32 42 48 45 43 42 44 48 50 51 50 50 51 53 54 54 55 57 58 59
27 28 27 28 30 31 31 31 31 31 31 32 34 36 37 39 39 39 39 40 40 40 41 41 43 43 42 41 39 38 39 39 40 40 39 38 38 38 39 39 38 38 38 36 35 33 31 33 36 34 32 33 35 37 37 35 32 32 32 32 32 36 42 46 48 47 45 45 47 49 48 45 41 39 42 44 44 44 45 45 46 46 47 49 51 53 56 57
29 30 30 30 31 32 32 32 32 33 34 33 35 37 38 38 39 38 39 40 41 42 42 44 46 44 43 42 41 41 40 38 38 36 35 36 37 36 37 37 38 38 38 37 35 31 27 27 28 27 28 28 30 31 32 32 33 34 35 36 39 44 49 50 50 50 49 48 48 46 44 40 35 34 36 35 35 36 37 40 43 45 45 48 49 51 52 51
30 31 30 31 32 31 32 34 33 34 36 36 38 39 37 37 37 37 38 39 39 40 40 42 44 42 41 40 41 43 42 40 39 38 38 39 40 40 40 41 43 43 41 39 36 32 29 30 31 31 31 33 37 36 34 36 37 37 39 43 47 50 51 50 49 49 48 48 49 47 45 41 37 33 31 29 31 33 35 37 41 42 42 43 44 45 46 46
30 31 31 32 33 33 34 35 34 36 38 39 39 39 38 38 39 39 40 38 38 40 40 40 40 37 35 34 35 37 37 36 38 39 40 41 42 43 45 45 44 43 43 41 38 37 36 34 35 33 28 32 40 40 37 33 27 29 41 48 48 48 48 45 44 44 45 47 47 44 41 39 38 34 31 29 30 32 33 33 35 36 36 34 35 36 37 38
Wind_Direction
281 282 283 283 284 283 284 284 284 284 284 283 283 281 279 278 277 277 276 276 276 277 278 279 280 281 282 283 283 283 284 285 288 289 289 289 292 293 292 292 292 290 290 289 289 288 288 287 286 285 284 284 283 282 282 282 284 283 282 280 279 282 287 294 296 292 290 292 289 287 291 294 298 301 297 294 295 299 302 303 308 312 318 319 315 308 303 299
279 280 281 282 282 282 282 282 283 283 283 283 284 284 283 283 283 282 280 279 279 279 278 278 279 279 280 280 281 281 281 282 286 288 288 288 290 292 292 291 290 289 287 285 285 284 285 285 284 283 282 282 282 282 281 282 282 281 281 278 277 284 291 292 291 289 290 291 289 290 292 293 298 302 298 294 296 299 301 307 313 314 317 318 313 306 301 298
275 276 276 277 278 280 280 280 281 281 281 282 282 283 283 283 284 284 284 284 283 283 282 281 281 281 281 281 282 282 282 283 286 288 289 288 289 291 291 290 288 287 286 285 283 282 282 282 281 281 281 280 281 281 280 281 282 281 277 275 279 288 288 286 288 290 289 287 287 290 291 292 297 298 294 294 297 297 300 312 314 311 315 315 311 306 304 303
272 272 273 274 274 276 277 278 279 279 280 280 281 281 281 282 282 283 284 285 285 285 285 285 284 284 283 283 284 284 284 287 287 286 289 291 292 291 289 290 289 288 288 287 286 285 283 281 280 279 279 280 281 281 281 283 283 279 275 277 283 287 282 283 288 287 285 284 285 288 290 293 296 292 291 294 296 296 301 310 309 309 314 313 309 307 307 307
272 273 273 273 273 274 274 276 276 277 278 278 279 279 280 281 281 282 282 284 284 285 286 286 287 286 285 285 285 286 287 290 289 286 289 293 294 292 290 290 290 290 291 290 289 287 286 284 282 280 280 281 281 281 283 284 282 278 279 281 284 285 283 285 288 284 282 280 280 284 288 292 292 289 291 291 292 297 302 306 305 307 311 310 308 309 308 309
275 275 275 275 274 274 274 275 276 276 277 278 279 279 280 280 281 281 282 283 283 284 285 285 286 286 286 285 285 286 285 287 290 288 288 289 290 290 289 289 288 287 289 289 287 285 284 282 281 280 280 281 281 282 284 284 281 280 280 281 283 286 284 286 288 283 280 279 280 284 286 288 287 288 290 286 288 296 300 305 305 304 304 302 304 307 308 309
276 277 277 277 276 276 276 276 277 277 278 279 280 281 281 282 282 282 283 283 283 284 284 284 284 284 284 283 283 282 280 283 290 288 288 288 287 288 289 288 286 286 286 287 286 285 283 281 282 282 281 281 283 284 285 283 282 281 281 283 285 284 282 285 286 283 282 281 284 285 285 286 287 289 288 285 288 295 299 303 302 300 298 295 297 301 303 304
275 276 276 277 277 276 276 277 278 278 279 280 280 281 281 282 282 283 284 284 284 284 284 284 284 284 284 282 281 278 277 285 288 284 286 287 286 288 288 287 286 285 285 285 286 286 285 286 287 285 281 282 283 283 283 283 282 281 283 286 286 282 282 283 283 283 284 284 286 286 284 286 289 290 286 284 290 297 302 302 297 296 295 292 292 294 295 295
274 274 274 275 275 275 275 276 276 277 278 278 279 279 280 280 281 282 283 283 284 284 285 284 283 284 283 281 281 276 277 287 284 281 284 284 286 286 285 285 284 283 283 284 284 285 286 286 285 281 280 280 281 282 284 283 281 283 285 286 284 283 283 282 281 282 283 284 285 285 285 286 289 288 285 286 295 302 303 299 294 293 293 292 291 290 291 291
274 273 273 273 274 274 274 275 275 275 276 276 277 278 278 279 279 280 281 283 283 284 285 284 284 284 282 281 278 275 280 287 281 280 282 282 284 283 283 283 282 282 281 281 282 283 283 282 280 278 277 278 281 283 284 283 283 285 285 284 283 284 283 281 280 281 283 284 284 285 286 286 287 286 284 289 300 304 300 295 292 291 290 291 290 290 291 291
274 274 274 273 274 274 274 274 274 275 275 276 277 278 278 279 279 280 281 282 283 284 285 285 286 285 283 280 274 275 283 283 279 280 281 282 283 281 281 280 280 280 280 279 279 279 280 279 277 276 276 278 280 282 284 284 284 285 285 285 284 284 283 281 281 283 285 285 285 288 288 286 285 283 285 293 300 300 297 292 290 289 290 290 289 290 290 290
274 274 274 274 274 274 274 274 274 274 275 275 276 277 278 278 278 279 280 281 282 282 283 284 284 284 283 278 274 279 284 281 280 282 283 284 281 279 278 278 278 278 279 279 278 278 277 277 276 276 276 277 280 282 283 283 283 283 285 286 285 284 281 279 282 284 286 288 289 292 289 286 284 282 285 292 296 297 295 293 291 291 292 291 290 289 288 288
276 276 276 276 276 275 275 275 275 275 275 275 276 276 276 277 278 278 279 280 280 280 281 282 282 282 281 277 278 282 282 281 283 285 287 285 281 279 278 277 277 277 277 278 278 278 278 277 276 275 275 277 279 280 281 281 280 281 284 284 284 285 281 280 285 288 290 292 293 294 289 287 286 284 286 291 295 296 293 293 293 293 293 292 290 289 288 287
278 278 278 278 277 277 277 277 276 276 276 276 277 277 277 278 278 279 279 280 280 280 281 281 281 282 280 279 282 283 283 284 286 288 288 285 283 281 279 278 277 276 277 278 278 278 279 278 276 275 275 277 280 281 280 277 276 280 282 281 281 281 281 284 290 293 294 293 295 295 289 289 291 288 287 291 295 295 293 294 295 294 293 292 291 290 288 287
279 280 280 279 279 279 279 279 278 278 278 278 278 278 279 279 280 281 281 282 282 282 282 282 282 282 281 282 284 284 286 287 286 286 284 284 285 282 279 277 277 277 278 278 279 278 278 277 275 276 277 278 280 280 278 274 275 280 278 277 279 280 284 291 292 292 294 292 293 293 290 292 292 290 290 292 293 294 295 295 294 293 293 293 292 291 291 289
280 280 280 280 281 281 281 281 281 281 281 281 280 280 280 280 280 281 282 283 283 283 283 283 283 282 282 284 287 287 288 287 286 284 282 283 282 280 280 278 277 278 277 278 278 277 276 274 275 276 277 278 279 280 277 273 274 276 274 275 280 282 288 293 290 288 290 290 292 292 291 292 291 291 293 293 293 295 295 293 293 292 292 292 294 294 295 294
281 281 281 281 281 282 282 283 282 283 282 282 282 282 281 280 280 280 280 281 282 283 282 281 282 281 282 286 287 287 286 285 286 284 283 282 280 280 279 278 278 277 276 277 277 276 273 274 276 276 277 277 277 276 271 268 272 278 280 281 284 287 290 292 290 290 290 291 293 293 290 290 291 293 294 294 294 294 292 291 292 292 292 294 296 297 298 298
282 282 282 282 282 282 282 282 282 282 282 282 281 281 281 280 279 278 278 278 279 281 280 280 281 281 283 285 286 285 284 284 285 284 282 280 278 277 276 277 277 276 276 275 274 273 273 275 276 274 274 273 273 269 264 270 283 287 290 289 289 290 288 288 291 293 295 294 293 291 289 289 292 294 294 294 294 292 289 289 291 292 294 297 298 299 300 298
281 281 282 283 283 282 282 281 281 281 281 281 281 281 281 281 280 279 278 277 277 278 279 279 279 279 280 283 285 285 285 284 282 281 280 278 276 275 275 275 274 274 273 272 272 273 274 274 271 269 271 273 276 276 276 285 292 291 291 289 288 289 287 288 291 295 301 296 291 290 290 291 293 294 294 293 292 290 287 287 291 294 296 298 299 299 299 300
280 280 281 282 282 282 282 281 280 280 280 281 282 283 284 284 284 283 281 279 278 278 278 279 279 278 280 283 284 285 284 282 279 278 276 275 274 274 273 272 271 270 269 271 273 274 274 271 268 270 276 281 286 287 287 290 289 287 287 286 286 286 285 289 293 299 304 295 290 293 293 293 294 294 294 294 291 288 288 290 293 295 297 298 298 299 301 303
279 279 279 279 280 281 281 281 281 281 281 281 282 283 284 286 286 285 284 281 279 279 279 279 279 279 281 283 283 283 282 278 276 275 274 274 274 273 272 270 269 268 269 271 272 272 270 267 269 276 283 288 288 285 284 284 283 284 285 285 284 282 286 294 297 301 303 293 291 297 297 294 295 294 294 293 291 290 291 294 294 294 295 297 301 304 304 304
278 278 278 278 278 279 279 280 280 281 282 282 282 283 284 285 286 287 286 284 281 280 280 280 280 280 282 282 281 281 278 276 275 274 274 273 271 271 271 270 270 271 271 271 270 270 267 267 275 283 287 286 283 282 283 284 284 283 282 282 282 285 292 297 299 303 305 297 295 301 299 294 296 296 295 294 292 293 296 297 298 299 299 303 307 306 303 308
280 280 280 279 280 280 279 279 280 281 281 282 282 283 283 284 286 286 286 286 284 281 280 281 280 280 281 279 278 277 276 276 276 273 272 270 267 267 268 270 272 272 272 270 269 268 267 272 281 284 282 280 280 282 283 284 283 281 280 280 281 289 293 293 299 308 306 299 299 303 299 296 300 301 300 303 298 294 299 302 305 306 307 308 307 304 311 328
282 282 282 282 282 282 282 282 282 282 281 282 282 282 283 284 285 286 286 287 286 284 283 283 281 280 280 277 275 273 272 273 273 271 268 265 265 265 266 269 270 271 272 271 270 269 269 275 281 279 278 279 280 281 282 283 283 282 281 280 284 293 295 292 301 307 302 300 302 306 303 301 310 324 329 323 304 301 305 308 311 313 313 308 294 305 322 324
282 282 282 282 281 282 283 284 285 285 285 285 284 284 284 285 286 288 291 292 291 291 290 287 284 282 280 274 271 268 266 267 267 265 262 262 265 266 266 267 267 270 272 272 271 270 272 277 280 279 279 280 280 282 284 283 281 282 284 287 291 298 298 297 303 305 301 303 306 314 314 306 303 282 295 303 305 309 315 319 323 321 313 277 309 323 321 317
280 279 279 280 280 280 281 283 285 287 286 285 285 285 285 286 288 291 298 299 296 296 297 291 282 279 278 270 260 255 258 259 254 257 263 265 265 264 265 264 264 268 270 271 272 272 277 282 281 281 282 280 279 285 292 288 281 280 288 299 298 298 298 297 302 300 295 298 299 303 302 292 293 292 297 305 312 318 324 330 334 113 118 343 328 326 320 299
280 279 277 277 278 278 278 279 282 283 282 282 284 284 284 286 289 296 305 306 299 299 305 289 264 262 266 247 222 229 243 251 260 271 270 265 265 264 265 265 264 266 270 272 270 271 282 291 288 288 287 283 283 292 301 298 284 281 292 302 296 295 296 295 298 292 290 296 296 293 278 278 288 292 301 308 313 326 337 344 132 138 25 340 329 324 305 271
283 280 278 277 277 276 276 277 278 277 277 278 279 280 282 285 288 294 305 308 293 304 315 279 237 230 229 214 225 246 260 272 276 274 268 265 267 267 267 268 268 268 270 269 266 270 284 290 289 290 288 289 294 301 302 293 284 285 295 297 290 290 288 287 290 287 293 298 296 296 274 256 281 290 302 308 309 335 349 346 172 187 333 326 317 307 276 258
281 280 280 278 276 276 276 276 274 273 274 274 276 277 279 283 286 289 289 265 270 294 298 267 237 230 240 247 258 266 272 277 275 272 270 266 264 264 265 267 268 268 267 266 268 275 285 287 289 290 289 293 298 301 294 285 283 286 290 287 283 284 281 281 283 284 292 292 281 280 253 230 286 293 304 310 305 16 41 323 236 275 310 314 303 269 254 248
276 278 279 279 279 280 280 278 276 275 274 274 277 280 282 286 286 279 259 248 268 291 288 267 249 252 263 264 265 268 269 270 269 270 271 266 261 261 262 263 265 265 265 266 270 277 283 285 287 288 290 293 294 292 288 285 284 283 281 279 279 280 279 278 275 276 285 278 270 273 266 250 284 297 336 23 99 79 340 308 296 293 301 306 291 261 260 245
276 278 279 279 281 283 283 281 279 278 277 276 277 281 286 290 280 251 226 260 274 283 280 274 266 263 265 263 262 262 259 259 261 263 264 264 263 261 262 263 263 266 268 268 272 278 282 284 285 286 286 286 287 288 288 288 286 282 277 275 279 283 282 277 266 257 225 266 273 279 277 242 243 272 304 301 285 308 311 307 304 302 302 298 277 263 270 282
278 279 281 281 281 282 281 281 279 276 276 277 278 280 283 284 262 239 240 265 286 294 287 291 284 272 268 262 260 260 258 256 258 258 259 261 261 260 261 260 258 264 269 271 277 281 282 281 280 280 278 277 281 283 285 287 285 281 274 267 271 295 300 276 211 199 199 251 272 282 267 229 248 270 283 290 298 308 311 308 308 307 304 294 282 281 286 293
278 279 281 281 281 280 278 277 274 271 272 274 275 275 272 264 252 248 248 253 258 265 282 292 289 286 281 270 265 264 261 256 254 255 256 256 257 258 257 255 253 257 268 276 281 282 283 281 275 272 272 273 273 276 283 287 282 275 266 256 241 206 294 261 245 276 250 260 275 275 253 237 259 277 288 296 302 305 305 305 304 301 301 298 296 298 297 290
276 277 278 278 278 277 276 275 272 270 269 268 267 264 250 240 248 255 254 256 258 264 273 277 279 280 278 272 267 264 262 259 257 258 259 258 258 258 258 257 257 263 273 277 278 277 276 278 279 274 268 267 269 274 281 279 272 268 267 258 243 237 241 245 241 251 271 278 277 249 214 230 264 279 289 294 297 298 298 298 298 296 294 293 293 294 288 270
275 276 276 275 275 275 275 274 271 267 263 261 256 243 235 241 251 257 260 262 263 265 268 271 274 275 275 273 271 269 268 266 265 264 264 263 263 263 263 261 259 263 269 269 272 276 271 274 282 279 264 266 275 276 271 265 262 264 259 245 244 249 251 254 253 255 268 282 270 237 237 261 275 283 289 293 294 295 296 297 298 297 291 284 281 274 260 252
274 274 274 274 274 274 274 270 265 259 258 257 244 235 242 249 254 257 260 263 262 262 266 268 270 272 275 276 276 276 273 267 266 265 263 262 261 260 260 260 258 259 263 264 267 270 266 268 276 277 273 272 273 271 263 257 254 249 240 244 256 262 260 260 263 265 267 274 265 256 261 271 279 286 289 291 294 294 297 299 299 300 294 278 263 248 255 290
271 271 271 272 272 271 269 265 258 250 253 252 241 241 252 257 256 256 258 261 262 262 264 266 267 268 271 276 277 280 277 269 265 262 259 261 260 259 260 261 263 264 265 265 264 261 258 261 266 269 275 273 267 269 267 256 250 245 248 261 268 269 262 257 261 270 255 257 260 249 259 271 276 282 287 289 292 293 296 298 298 298 288 259 265 286 293 292
270 270 270 270 269 267 264 260 252 242 240 243 243 247 254 257 257 258 259 261 263 265 265 264 264 265 265 267 270 274 275 271 266 261 261 262 261 263 267 265 264 264 262 260 259 255 253 258 262 262 268 273 270 270 266 258 255 255 258 264 263 258 257 247 234 252 245 250 264 240 250 263 261 268 282 287 289 294 295 292 290 285 266 264 283 293 289 279
268 268 269 269 268 265 261 255 250 240 232 235 240 245 249 252 254 256 259 262 263 264 264 263 263 263 262 263 266 268 270 270 269 265 264 261 257 262 267 264 261 262 258 255 254 254 255 261 263 263 269 276 270 263 263 264 264 260 257 257 256 255 259 252 241 247 256 258 270 258 250 253 253 261 273 280 286 294 295 290 287 287 284 281 281 280 276 270
268 267 267 268 267 264 260 252 243 236 231 233 237 240 245 250 254 257 260 262 263 262 263 264 264 264 265 266 268 270 271 270 269 267 265 264 264 267 268 267 268 268 264 260 258 261 264 260 259 267 270 267 261 259 265 269 267 261 255 253 256 259 261 259 251 251 258 264 267 266 257 247 251 260 269 277 284 290 290 289 293 297 293 282 274 274 273 269
268 266 266 268 268 265 259 247 239 236 234 235 239 242 246 250 255 259 261 262 264 263 262 262 263 265 267 269 270 272 272 271 270 268 266 265 266 267 268 270 273 272 269 267 264 265 267 259 254 259 256 253 258 265 268 269 267 268 267 264 265 264 259 258 260 255 253 250 249 259 261 253 255 261 268 276 283 286 284 285 288 290 288 282 277 275 271 269
265 265 267 269 267 265 257 247 244 241 238 240 245 247 249 253 257 261 263 263 263 262 262 264 265 266 267 269 270 271 271 270 269 267 267 268 268 269 272 274 274 271 268 268 269 270 272 268 261 257 254 258 265 269 267 268 270 272 272 270 268 262 253 248 251 256 253 249 254 262 264 263 265 266 269 276 282 283 282 283 284 285 285 284 282 278 274 271
263 265 266 266 264 262 252 247 248 244 241 247 252 252 253 256 259 263 264 263 262 263 265 266 267 267 268 269 270 271 271 271 270 269 270 273 274 274 276 277 273 269 268 268 269 269 267 262 259 262 265 267 268 268 268 271 273 270 266 266 263 257 255 253 252 258 262 260 263 267 263 263 269 273 277 281 281 278 278 279 280 280 281 283 284 284 283 281
264 265 265 264 263 257 247 248 253 251 250 254 254 254 255 256 258 262 264 263 265 266 267 267 267 268 268 270 270 270 270 270 270 272 273 274 276 277 278 277 270 267 267 267 268 269 264 257 256 264 272 270 267 269 268 267 267 267 266 266 264 264 266 266 265 267 269 264 262 260 258 265 272 280 281 278 274 272 273 273 273 275 277 280 283 286 288 290
265 264 262 261 258 253 251 255 257 256 257 257 256 256 257 256 258 262 262 262 264 265 266 268 268 269 270 271 271 270 269 267 268 271 272 273 275 276 276 275 271 268 266 266 267 267 264 259 256 257 257 256 263 262 255 255 263 276 281 274 270 275 278 282 281 276 270 268 264 258 268 276 280 285 283 278 274 270 268 269 271 273 276 279 283 286 290 291
263 263 262 261 257 255 258 261 257 254 256 257 256 257 258 259 262 264 262 263 263 263 265 266 266 268 269 269 269 269 269 269 269 269 271 272 272 272 272 273 273 271 269 269 267 264 264 263 260 259 259 260 266 268 267 270 278 285 286 281 278 277 277 280 280 270 268 273 269 267 275 280 283 285 283 281 280 276 274 275 276 276 278 280 282 286 289 290
261 261 261 261 259 257 260 260 254 253 255 255 255 258 261 263 266 266 266 266 265 265 266 265 264 265 265 266 267 268 269 270 270 270 272 272 272 272 272 272 271 270 268 269 267 266 271 274 271 270 270 270 273 275 277 280 281 281 280 280 279 279 279 280 275 269 273 276 273 277 281 284 286 286 285 285 285 284 284 283 282 280 279 280 281 283 285 286
262 261 260 259 258 259 262 262 260 258 257 255 255 259 263 264 266 267 268 268 268 268 268 267 266 266 266 267 267 267 268 269 269 269 270 271 272 272 271 270 269 269 267 267 267 269 272 274 274 274 275 275 276 277 277 277 276 275 274 275 278 280 281 280 278 278 281 277 276 282 285 286 286 284 283 284 284 284 284 283 282 281 281 281 282 282 282 283
262 262 263 261 262 264 266 267 268 266 264 260 257 259 262 263 265 267 266 266 267 268 269 270 270 271 272 272 270 268 267 266 267 269 270 271 272 271 270 269 268 268 268 268 270 272 271 273 275 275 275 273 271 271 272 272 274 277 277 278 281 281 280 279 280 282 281 278 278 282 284 284 282 279 279 280 279 280 281 280 281 281 281 282 282 282 281 281
263 263 264 264 264 267 268 268 268 267 267 265 261 262 265 264 266 268 265 264 266 268 270 272 273 275 277 278 275 271 268 266 266 267 269 271 273 271 270 270 269 270 271 272 274 273 269 268 268 269 273 270 264 266 270 274 280 283 281 280 280 279 278 279 280 280 279 278 279 280 280 279 275 273 274 273 273 276 276 276 279 280 280 281 280 280 279 279
265 265 265 264 264 265 266 266 266 265 266 265 264 266 266 264 264 265 263 263 265 266 268 272 274 276 276 276 274 269 268 266 264 266 268 271 272 271 270 270 271 273 274 273 273 270 265 265 267 272 278 276 271 274 279 283 285 283 280 279 279 278 279 280 280 279 278 278 279 278 277 274 271 269 268 266 270 273 274 276 278 278 279 280 278 277 277 278
265 265 264 264 264 264 264 265 264 264 265 267 267 265 263 261 260 260 259 259 260 260 261 263 266 268 266 265 264 262 263 266 268 271 272 271 270 268 267 266 267 268 269 269 269 266 263 268 276 280 282 280 279 282 287 291 289 281 278 280 281 281 282 281 278 275 274 273 274 273 272 271 270 269 269 269 270 270 270 273 275 276 279 283 282 281 282 285
Height
3186 3186 3186 3186 3186 3186 3186 3186 3185 3185 3185 3184 3184 3184 3184 3184 3184 3183 3183 3183 3183 3183 3182 3182 3182 3181 3181 3180 3180 3180 3179 3179 3179 3179 3178 3178 3177 3177 3177 3176 3176 3176 3175 3175 3174 3174 3174 3173 3173 3173 3172 3172 3171 3171 3170 3169 3169 3168 3167 3166 3165 3165 3165 3165 3165 3164 3163 3163 3162 3161 3161 3159 3159 3160 3158 3156 3156 3156 3156 3156 3155 3155 3155 3154 3153 3152 3152 3151
3186 3185 3185 3185 3185 3185 3185 3185 3184 3184 3184 3183 3183 3183 3183 3183 3183 3182 3182 3182 3182 3182 3181 3181 3181 3181 3180 3179 3179 3179 3178 3179 3178 3178 3177 3177 3177 3176 3176 3176 3175 3175 3174 3174 3173 3173 3172 3172 3172 3171 3171 3171 3170 3170 3169 3168 3168 3167 3166 3164 3163 3164 3164 3164 3164 3163 3162 3161 3160 3160 3160 3158 3158 3158 3155 3154 3154 3155 3154 3154 3154 3154 3154 3153 3151 3150 3149 3149
3184 3184 3184 3184 3184 3184 3184 3184 3183 3183 3183 3182 3182 3182 3182 3182 3181 3181 3181 3181 3181 3181 3180 3180 3180 3180 3179 3179 3178 3177 3177 3178 3178 3177 3176 3176 3176 3175 3175 3174 3174 3173 3173 3172 3172 3171 3171 3171 3170 3170 3169 3169 3169 3168 3167 3167 3166 3165 3164 3161 3162 3163 3162 3162 3163 3162 3161 3159 3158 3158 3158 3157 3157 3156 3153 3152 3152 3153 3153 3153 3152 3152 3152 3151 3149 3147 3147 3147
3183 3183 3183 3183 3183 3183 3182 3182 3182 3182 3181 3181 3181 3180 3180 3180 3180 3180 3180 3180 3179 3179 3179 3179 3178 3178 3178 3177 3177 3176 3176 3176 3176 3176 3175 3175 3175 3174 3174 3173 3173 3172 3171 3171 3170 3170 3169 3169 3168 3168 3168 3167 3167 3167 3166 3166 3165 3163 3161 3160 3161 3162 3160 3160 3161 3160 3159 3158 3156 3156 3155 3155 3155 3154 3152 3151 3149 3150 3152 3152 3151 3149 3149 3149 3147 3146 3145 3145
3182 3182 3182 3182 3182 3182 3181 3181 3181 3180 3180 3179 3179 3179 3179 3179 3179 3179 3179 3178 3178 3178 3178 3177 3177 3177 3176 3176 3175 3175 3174 3175 3175 3174 3174 3174 3173 3173 3173 3172 3171 3171 3170 3170 3169 3168 3167 3167 3166 3166 3166 3166 3165 3165 3165 3165 3163 3160 3158 3159 3160 3159 3157 3158 3160 3158 3157 3156 3154 3154 3154 3153 3152 3151 3151 3149 3147 3148 3150 3151 3149 3147 3146 3146 3145 3145 3144 3143
3180 3180 3180 3180 3180 3180 3180 3180 3179 3179 3178 3178 3178 3177 3177 3177 3177 3177 3177 3177 3177 3176 3176 3176 3175 3175 3175 3174 3174 3173 3173 3174 3174 3173 3173 3173 3172 3172 3171 3171 3170 3169 3169 3168 3167 3166 3166 3165 3164 3164 3164 3163 3163 3163 3163 3163 3161 3158 3156 3157 3158 3158 3155 3155 3157 3155 3155 3153 3152 3153 3152 3151 3149 3149 3149 3146 3146 3148 3149 3149 3147 3146 3144 3144 3144 3143 3142 3141
3179 3179 3178 3178 3178 3178 3178 3178 3178 3177 3177 3177 3176 3176 3176 3175 3175 3175 3175 3175 3175 3174 3174 3174 3174 3173 3173 3173 3172 3171 3170 3172 3173 3171 3171 3171 3170 3170 3169 3169 3168 3167 3167 3166 3165 3164 3164 3163 3163 3163 3162 3161 3160 3160 3160 3159 3158 3156 3153 3154 3156 3155 3153 3153 3153 3152 3152 3151 3150 3151 3149 3149 3147 3147 3145 3142 3145 3147 3147 3147 3145 3144 3143 3142 3141 3141 3140 3139
3177 3177 3177 3176 3176 3176 3176 3176 3176 3176 3175 3175 3174 3174 3174 3173 3173 3173 3173 3173 3172 3172 3172 3172 3171 3171 3171 3170 3170 3168 3167 3171 3172 3169 3169 3168 3168 3168 3167 3167 3166 3165 3165 3164 3163 3162 3162 3161 3161 3160 3159 3159 3158 3157 3157 3156 3155 3153 3152 3152 3152 3151 3151 3151 3150 3148 3148 3148 3148 3147 3146 3146 3145 3144 3140 3139 3143 3145 3145 3144 3143 3141 3140 3139 3139 3139 3138 3137
3175 3175 3174 3174 3174 3174 3174 3174 3174 3174 3173 3173 3172 3172 3172 3171 3171 3171 3171 3170 3170 3170 3169 3169 3169 3169 3168 3168 3167 3164 3165 3169 3169 3167 3167 3166 3166 3166 3165 3165 3164 3163 3163 3162 3161 3160 3160 3159 3159 3158 3157 3156 3155 3154 3154 3153 3151 3150 3150 3149 3148 3148 3148 3148 3146 3146 3145 3145 3144 3143 3143 3144 3143 3140 3135 3136 3142 3143 3142 3141 3140 3139 3137 3137 3136 3136 3135 3134
3173 3172 3172 3172 3172 3171 3172 3172 3171 3171 3171 3170 3170 3170 3169 3169 3169 3168 3168 3168 3168 3167 3167 3167 3167 3167 3166 3166 3164 3161 3164 3167 3166 3165 3165 3164 3165 3164 3163 3162 3161 3161 3160 3159 3159 3158 3158 3157 3156 3155 3154 3154 3153 3152 3152 3150 3148 3148 3147 3146 3145 3145 3145 3144 3142 3143 3142 3142 3141 3139 3139 3141 3140 3136 3131 3134 3139 3139 3138 3137 3136 3135 3134 3134 3133 3132 3132 3131
3170 3170 3170 3170 3169 3169 3169 3169 3169 3169 3168 3168 3167 3167 3166 3166 3166 3166 3166 3166 3165 3165 3165 3164 3164 3164 3163 3163 3161 3159 3163 3164 3162 3163 3162 3163 3163 3162 3161 3160 3159 3158 3157 3157 3156 3156 3155 3154 3154 3153 3152 3151 3151 3150 3149 3147 3145 3145 3144 3143 3143 3142 3141 3140 3139 3140 3140 3138 3137 3135 3134 3136 3137 3132 3128 3132 3135 3134 3132 3132 3132 3131 3130 3130 3130 3129 3128 3127
3168 3168 3167 3167 3167 3167 3166 3166 3166 3166 3165 3165 3165 3164 3164 3163 3163 3163 3163 3163 3162 3162 3162 3162 3161 3161 3161 3160 3158 3159 3161 3160 3160 3160 3160 3160 3160 3159 3158 3157 3156 3155 3155 3154 3154 3153 3152 3152 3151 3150 3150 3149 3149 3149 3146 3145 3143 3142 3141 3139 3139 3139 3137 3136 3137 3138 3137 3135 3134 3132 3128 3129 3132 3129 3127 3130 3131 3129 3127 3127 3127 3127 3127 3126 3126 3125 3124 3123
3165 3165 3165 3165 3164 3164 3164 3163 3163 3163 3163 3162 3162 3161 3161 3160 3160 3160 3160 3160 3159 3159 3158 3158 3158 3158 3157 3156 3157 3158 3158 3157 3157 3157 3157 3157 3156 3156 3155 3154 3153 3152 3152 3152 3151 3150 3150 3149 3148 3148 3148 3147 3147 3147 3144 3141 3139 3139 3139 3136 3135 3134 3132 3133 3136 3135 3135 3133 3130 3129 3122 3120 3126 3126 3126 3127 3126 3124 3122 3122 3123 3122 3122 3121 3121 3119 3118 3118
3162 3162 3162 3162 3162 3161 3161 3161 3160 3160 3160 3159 3159 3158 3158 3157 3157 3157 3156 3156 3156 3155 3155 3155 3154 3154 3153 3153 3155 3155 3154 3155 3154 3154 3154 3153 3153 3153 3152 3151 3150 3149 3149 3149 3148 3148 3147 3146 3145 3145 3146 3145 3145 3144 3141 3138 3136 3138 3136 3132 3132 3129 3127 3132 3135 3132 3132 3129 3126 3124 3115 3112 3119 3122 3124 3124 3121 3119 3117 3117 3118 3117 3116 3116 3116 3115 3113 3113
3159 3159 3159 3159 3159 3159 3158 3158 3158 3157 3157 3156 3156 3155 3155 3154 3154 3153 3153 3153 3152 3152 3152 3151 3151 3150 3149 3150 3152 3151 3151 3151 3151 3151 3150 3149 3149 3149 3148 3147 3147 3146 3146 3146 3145 3145 3144 3143 3142 3142 3143 3144 3144 3142 3138 3133 3134 3137 3132 3128 3129 3126 3123 3129 3133 3131 3128 3125 3123 3119 3110 3107 3112 3116 3120 3121 3117 3115 3112 3112 3113 3113 3112 3110 3110 3110 3108 3108
3156 3156 3156 3156 3156 3156 3156 3155 3155 3155 3154 3154 3153 3152 3152 3152 3151 3150 3150 3149 3149 3148 3148 3148 3148 3147 3145 3147 3149 3149 3148 3148 3148 3147 3147 3146 3146 3144 3144 3144 3143 3143 3143 3143 3142 3141 3140 3139 3139 3139 3140 3141 3142 3139 3134 3130 3131 3134 3129 3125 3126 3124 3122 3123 3127 3129 3127 3120 3118 3116 3107 3102 3106 3110 3114 3116 3115 3111 3108 3106 3107 3108 3107 3106 3105 3104 3103 3102
3153 3153 3153 3153 3153 3153 3153 3153 3152 3152 3152 3151 3150 3150 3149 3149 3148 3148 3147 3147 3146 3146 3145 3145 3144 3143 3142 3143 3145 3146 3145 3145 3145 3144 3144 3144 3142 3141 3140 3139 3140 3140 3140 3140 3139 3138 3137 3136 3135 3136 3137 3138 3139 3137 3132 3128 3128 3129 3127 3123 3122 3123 3121 3119 3121 3125 3125 3118 3114 3111 3103 3098 3101 3106 3108 3110 3111 3107 3103 3101 3101 3102 3102 3102 3101 3099 3098 3097
3150 3150 3150 3150 3150 3150 3150 3150 3149 3149 3149 3148 3147 3147 3147 3146 3146 3145 3145 3144 3143 3143 3142 3141 3141 3139 3139 3140 3141 3142 3143 3142 3142 3141 3141 3140 3138 3137 3136 3136 3136 3136 3136 3136 3135 3135 3134 3132 3131 3131 3133 3134 3134 3134 3129 3125 3126 3125 3125 3122 3119 3119 3118 3117 3117 3120 3122 3115 3109 3106 3098 3094 3097 3100 3102 3104 3106 3103 3099 3098 3097 3097 3097 3097 3096 3094 3093 3092
3147 3146 3146 3147 3147 3147 3147 3147 3146 3146 3146 3145 3145 3144 3144 3143 3142 3142 3141 3141 3140 3140 3138 3138 3138 3137 3136 3138 3138 3138 3139 3139 3139 3138 3138 3136 3135 3133 3132 3132 3132 3132 3132 3132 3131 3131 3130 3128 3126 3127 3128 3129 3130 3130 3126 3125 3125 3123 3123 3121 3118 3115 3112 3114 3114 3116 3119 3109 3102 3102 3093 3090 3093 3094 3096 3098 3099 3097 3094 3095 3094 3093 3093 3093 3092 3090 3088 3087
3143 3143 3143 3143 3143 3143 3143 3143 3143 3143 3143 3143 3142 3141 3141 3139 3138 3138 3137 3137 3137 3137 3135 3134 3134 3132 3133 3135 3135 3135 3135 3135 3135 3135 3134 3132 3131 3129 3129 3128 3127 3127 3128 3128 3127 3127 3126 3122 3120 3123 3124 3126 3128 3128 3125 3123 3123 3121 3119 3118 3115 3112 3107 3109 3111 3113 3117 3103 3092 3097 3090 3084 3088 3088 3090 3092 3091 3090 3089 3091 3091 3089 3088 3087 3087 3086 3084 3082
3140 3140 3140 3140 3140 3140 3140 3140 3140 3140 3139 3140 3139 3138 3138 3136 3134 3133 3131 3131 3133 3132 3131 3131 3129 3127 3130 3131 3130 3131 3130 3130 3131 3131 3130 3129 3128 3126 3124 3123 3122 3123 3124 3125 3124 3122 3120 3116 3117 3121 3123 3124 3124 3124 3122 3121 3120 3118 3117 3114 3111 3109 3103 3104 3109 3109 3113 3101 3087 3091 3085 3077 3082 3082 3084 3087 3085 3084 3084 3086 3086 3085 3084 3083 3082 3081 3080 3078
3137 3137 3137 3137 3136 3137 3137 3137 3137 3136 3136 3136 3136 3135 3134 3133 3131 3129 3126 3123 3126 3128 3126 3126 3125 3122 3126 3127 3125 3126 3125 3125 3126 3126 3126 3125 3124 3123 3120 3118 3118 3118 3120 3121 3119 3116 3114 3112 3116 3120 3121 3121 3119 3119 3120 3118 3117 3115 3114 3112 3106 3107 3103 3098 3103 3105 3107 3098 3086 3087 3077 3067 3076 3077 3077 3081 3080 3080 3081 3081 3082 3081 3080 3079 3078 3077 3075 3074
3134 3134 3134 3133 3133 3133 3133 3133 3133 3133 3133 3133 3133 3132 3131 3130 3128 3127 3123 3117 3116 3121 3122 3121 3120 3118 3121 3123 3121 3122 3120 3119 3121 3121 3122 3120 3119 3119 3116 3115 3115 3114 3115 3115 3114 3111 3108 3110 3115 3118 3117 3116 3115 3116 3117 3114 3112 3110 3111 3110 3103 3105 3104 3094 3096 3100 3101 3095 3087 3084 3071 3059 3067 3070 3070 3075 3075 3077 3079 3077 3078 3077 3075 3075 3073 3072 3071 3071
3130 3130 3130 3130 3130 3130 3130 3130 3130 3130 3130 3130 3130 3129 3128 3127 3126 3124 3121 3114 3108 3112 3117 3116 3114 3113 3116 3117 3116 3116 3115 3114 3115 3115 3117 3115 3114 3115 3113 3113 3112 3110 3110 3110 3110 3106 3104 3109 3113 3113 3112 3112 3112 3112 3114 3111 3106 3105 3107 3108 3102 3102 3103 3096 3094 3095 3093 3092 3088 3083 3066 3052 3060 3065 3064 3071 3073 3073 3075 3073 3073 3072 3070 3070 3069 3069 3069 3068
3128 3127 3127 3127 3126 3126 3126 3127 3126 3127 3127 3127 3127 3127 3126 3125 3124 3121 3119 3113 3103 3103 3110 3110 3108 3108 3110 3111 3110 3110 3109 3110 3111 3111 3113 3112 3112 3111 3110 3110 3108 3106 3107 3107 3106 3101 3101 3108 3109 3108 3108 3109 3109 3108 3110 3108 3102 3101 3103 3104 3101 3099 3099 3097 3096 3092 3087 3087 3087 3086 3072 3051 3053 3061 3061 3065 3069 3068 3069 3068 3066 3066 3066 3067 3068 3068 3068 3066
3125 3124 3124 3124 3123 3123 3123 3123 3124 3124 3123 3124 3124 3124 3124 3123 3122 3120 3117 3111 3100 3098 3103 3103 3103 3103 3104 3105 3105 3106 3106 3107 3108 3109 3110 3110 3109 3108 3107 3107 3105 3104 3104 3104 3102 3098 3099 3106 3106 3105 3105 3106 3107 3105 3106 3106 3101 3098 3099 3101 3100 3098 3097 3095 3095 3093 3087 3084 3083 3087 3085 3061 3045 3051 3057 3059 3062 3062 3063 3063 3062 3063 3064 3064 3066 3065 3064 3063
3121 3121 3121 3121 3120 3120 3120 3120 3121 3120 3120 3121 3121 3121 3121 3121 3121 3120 3117 3110 3099 3095 3098 3099 3099 3100 3101 3102 3102 3103 3104 3105 3107 3107 3108 3107 3106 3106 3104 3103 3104 3102 3102 3102 3099 3096 3099 3102 3102 3102 3103 3103 3104 3103 3104 3104 3101 3097 3097 3098 3098 3096 3096 3094 3093 3092 3087 3083 3080 3081 3089 3075 3046 3040 3051 3054 3056 3059 3059 3059 3059 3060 3061 3061 3062 3061 3060 3059
3118 3118 3117 3118 3117 3117 3117 3117 3117 3117 3117 3117 3118 3118 3118 3119 3119 3119 3120 3114 3099 3092 3096 3098 3098 3099 3100 3102 3102 3102 3103 3103 3104 3104 3105 3105 3103 3103 3102 3101 3102 3100 3100 3099 3095 3095 3098 3099 3098 3099 3099 3099 3099 3100 3101 3101 3099 3096 3096 3096 3095 3095 3094 3093 3092 3091 3088 3084 3078 3075 3083 3082 3053 3038 3049 3052 3052 3057 3056 3057 3058 3057 3058 3059 3059 3058 3057 3056
3115 3114 3114 3114 3113 3114 3114 3114 3114 3113 3114 3114 3115 3115 3115 3117 3117 3117 3120 3112 3095 3091 3096 3097 3098 3099 3099 3101 3101 3101 3101 3101 3101 3101 3102 3102 3101 3101 3100 3099 3100 3098 3097 3095 3092 3094 3096 3095 3094 3094 3095 3096 3096 3097 3097 3097 3096 3094 3094 3092 3092 3092 3091 3092 3090 3089 3091 3084 3076 3075 3081 3082 3057 3037 3047 3051 3050 3055 3054 3057 3059 3056 3057 3058 3056 3056 3054 3054
3111 3111 3111 3111 3110 3111 3112 3112 3112 3111 3111 3112 3112 3113 3113 3115 3115 3116 3114 3103 3092 3093 3095 3094 3097 3098 3098 3099 3099 3099 3099 3099 3099 3099 3099 3099 3098 3099 3098 3098 3097 3095 3094 3092 3089 3091 3092 3091 3091 3091 3092 3093 3093 3094 3093 3093 3093 3092 3092 3089 3089 3089 3087 3088 3087 3086 3091 3081 3073 3075 3078 3082 3065 3040 3043 3050 3049 3053 3054 3057 3059 3056 3057 3056 3055 3054 3052 3052
3108 3108 3108 3107 3107 3108 3108 3109 3110 3109 3109 3109 3109 3111 3111 3112 3113 3112 3103 3093 3092 3094 3092 3093 3095 3095 3096 3096 3096 3097 3097 3097 3097 3097 3096 3096 3096 3096 3096 3096 3095 3094 3091 3089 3088 3088 3088 3088 3088 3088 3090 3091 3090 3090 3089 3090 3090 3088 3088 3087 3086 3086 3084 3084 3083 3084 3088 3077 3071 3073 3075 3080 3066 3041 3043 3050 3049 3052 3053 3053 3055 3053 3054 3054 3053 3053 3051 3051
3105 3105 3104 3103 3104 3104 3105 3106 3107 3107 3107 3106 3108 3108 3109 3111 3107 3098 3092 3092 3095 3092 3090 3092 3092 3093 3094 3094 3094 3095 3095 3095 3095 3095 3094 3094 3093 3093 3094 3094 3093 3092 3088 3086 3086 3085 3084 3085 3086 3086 3086 3088 3087 3086 3086 3086 3086 3086 3085 3086 3086 3086 3084 3083 3081 3081 3081 3072 3068 3071 3072 3072 3057 3040 3044 3050 3049 3051 3051 3051 3052 3051 3051 3051 3051 3051 3050 3050
3102 3101 3101 3100 3100 3100 3101 3103 3104 3104 3104 3105 3106 3105 3108 3107 3094 3084 3086 3093 3093 3090 3090 3091 3091 3092 3093 3092 3093 3093 3092 3093 3093 3093 3092 3092 3091 3091 3091 3091 3091 3090 3086 3084 3083 3081 3080 3079 3081 3083 3082 3084 3084 3083 3084 3083 3082 3082 3082 3083 3084 3085 3084 3081 3079 3078 3074 3067 3065 3068 3069 3063 3049 3041 3045 3047 3047 3049 3049 3049 3050 3049 3049 3047 3047 3048 3048 3047
3098 3097 3097 3096 3096 3097 3098 3099 3100 3101 3101 3102 3103 3103 3105 3098 3083 3078 3084 3087 3088 3088 3089 3089 3089 3090 3089 3089 3090 3090 3091 3090 3090 3090 3090 3089 3088 3087 3088 3089 3089 3088 3086 3084 3081 3079 3077 3073 3074 3078 3078 3079 3079 3080 3081 3080 3079 3078 3078 3079 3078 3078 3077 3074 3072 3071 3066 3063 3063 3065 3063 3054 3044 3041 3043 3044 3045 3046 3046 3047 3047 3047 3047 3045 3045 3045 3044 3044
3093 3093 3093 3092 3092 3093 3094 3096 3097 3098 3099 3099 3099 3100 3095 3084 3078 3080 3082 3083 3085 3086 3086 3086 3087 3086 3085 3085 3086 3087 3088 3086 3085 3087 3086 3085 3085 3084 3084 3085 3086 3086 3084 3082 3079 3078 3075 3070 3070 3073 3074 3074 3075 3075 3077 3077 3075 3074 3074 3075 3072 3071 3071 3069 3066 3064 3063 3061 3060 3059 3053 3045 3041 3040 3040 3041 3041 3041 3043 3044 3044 3044 3044 3043 3044 3043 3042 3041
3088 3088 3088 3088 3088 3090 3091 3092 3093 3094 3095 3096 3096 3092 3083 3076 3077 3080 3080 3081 3082 3083 3083 3084 3083 3082 3081 3080 3081 3082 3083 3082 3081 3082 3081 3080 3080 3079 3080 3080 3082 3083 3081 3080 3078 3076 3072 3067 3068 3070 3069 3070 3071 3071 3072 3072 3071 3070 3069 3069 3068 3068 3068 3067 3063 3061 3062 3059 3055 3053 3046 3041 3041 3037 3036 3038 3036 3037 3039 3038 3040 3041 3041 3042 3042 3041 3039 3038
3083 3083 3083 3083 3085 3086 3087 3087 3089 3090 3091 3092 3089 3081 3074 3073 3076 3078 3078 3079 3079 3080 3081 3080 3080 3080 3078 3077 3077 3078 3078 3078 3078 3077 3077 3077 3075 3075 3075 3077 3078 3078 3078 3078 3075 3072 3069 3065 3066 3067 3065 3066 3068 3068 3068 3068 3067 3065 3064 3065 3065 3065 3064 3064 3061 3059 3061 3056 3049 3047 3043 3041 3041 3034 3032 3035 3033 3034 3036 3035 3036 3038 3038 3040 3040 3039 3037 3035
3078 3078 3078 3079 3081 3082 3082 3083 3084 3085 3087 3085 3080 3074 3072 3072 3073 3074 3075 3076 3076 3076 3077 3076 3076 3076 3075 3075 3074 3075 3075 3074 3074 3074 3074 3074 3071 3070 3071 3073 3073 3073 3074 3074 3071 3068 3066 3062 3061 3064 3062 3061 3063 3065 3063 3062 3063 3061 3060 3062 3063 3061 3059 3060 3059 3056 3056 3050 3043 3042 3040 3038 3039 3034 3032 3034 3030 3030 3033 3034 3035 3037 3038 3039 3038 3035 3032 3029
3074 3073 3072 3074 3076 3077 3078 3079 3079 3081 3081 3078 3073 3070 3068 3068 3069 3071 3072 3072 3072 3073 3072 3072 3073 3072 3072 3072 3071 3072 3073 3071 3072 3072 3071 3070 3068 3067 3068 3069 3069 3069 3070 3070 3067 3064 3063 3060 3057 3059 3061 3057 3057 3058 3056 3055 3058 3057 3056 3057 3058 3057 3054 3054 3053 3051 3049 3044 3038 3037 3034 3032 3034 3034 3033 3033 3030 3029 3030 3031 3033 3035 3036 3035 3031 3028 3026 3024
3070 3069 3068 3069 3071 3073 3074 3074 3075 3075 3073 3069 3067 3065 3064 3064 3066 3067 3068 3068 3068 3069 3068 3068 3069 3068 3067 3068 3068 3069 3069 3068 3069 3069 3068 3067 3065 3065 3066 3066 3066 3067 3067 3066 3064 3061 3061 3057 3052 3054 3058 3053 3049 3049 3049 3050 3052 3051 3051 3052 3052 3051 3050 3049 3046 3045 3044 3039 3036 3033 3028 3026 3030 3032 3032 3030 3028 3030 3030 3028 3027 3027 3027 3026 3024 3022 3022 3021
3065 3064 3063 3065 3067 3068 3069 3069 3068 3068 3065 3063 3063 3062 3062 3063 3063 3063 3064 3064 3064 3065 3065 3064 3064 3064 3063 3064 3064 3064 3064 3063 3064 3064 3062 3062 3062 3062 3062 3064 3064 3064 3063 3062 3060 3059 3057 3053 3048 3049 3050 3045 3042 3044 3046 3046 3047 3047 3045 3046 3047 3047 3047 3045 3039 3039 3039 3034 3031 3029 3022 3021 3027 3030 3029 3027 3029 3031 3026 3021 3020 3018 3018 3020 3020 3019 3018 3017
3060 3059 3060 3062 3062 3064 3065 3063 3062 3062 3060 3059 3059 3059 3060 3060 3059 3060 3060 3060 3061 3061 3061 3060 3060 3060 3060 3060 3060 3061 3060 3059 3058 3058 3056 3056 3058 3057 3058 3061 3061 3060 3059 3057 3056 3056 3054 3050 3045 3042 3041 3039 3040 3043 3044 3042 3042 3042 3040 3041 3042 3041 3042 3040 3034 3033 3033 3027 3027 3026 3018 3017 3022 3026 3026 3027 3030 3026 3016 3013 3016 3014 3011 3012 3012 3011 3011 3011
3055 3055 3056 3057 3058 3060 3060 3058 3057 3057 3055 3056 3057 3057 3058 3057 3056 3057 3056 3056 3056 3056 3056 3056 3055 3056 3056 3056 3057 3057 3056 3054 3051 3052 3051 3050 3051 3051 3053 3056 3056 3055 3055 3052 3051 3051 3048 3045 3041 3036 3035 3035 3036 3038 3039 3037 3036 3035 3034 3036 3037 3035 3036 3034 3029 3029 3027 3024 3025 3023 3015 3013 3017 3021 3024 3025 3024 3018 3010 3011 3013 3009 3006 3005 3003 3003 3003 3003
3051 3052 3052 3053 3054 3055 3054 3052 3052 3052 3052 3053 3054 3054 3054 3054 3053 3053 3053 3052 3052 3052 3051 3051 3052 3052 3052 3053 3053 3052 3052 3050 3046 3046 3047 3046 3045 3046 3048 3050 3050 3051 3049 3047 3046 3045 3042 3041 3039 3035 3033 3031 3032 3033 3033 3032 3031 3029 3029 3032 3031 3030 3031 3028 3026 3026 3022 3020 3023 3018 3009 3010 3016 3019 3019 3018 3018 3015 3010 3008 3007 3004 3002 3000 2998 2997 2996 2995
3047 3048 3048 3049 3049 3049 3048 3048 3049 3048 3049 3050 3049 3050 3050 3049 3048 3049 3049 3048 3048 3048 3047 3047 3047 3048 3048 3048 3047 3046 3047 3046 3043 3042 3043 3042 3042 3043 3044 3044 3045 3045 3044 3043 3042 3041 3037 3036 3036 3034 3030 3028 3028 3029 3028 3027 3026 3025 3026 3028 3028 3027 3027 3025 3024 3023 3018 3015 3017 3013 3006 3007 3013 3015 3013 3012 3013 3012 3008 3003 3002 3001 2999 2996 2995 2993 2992 2991
3043 3043 3044 3044 3045 3044 3044 3045 3045 3044 3045 3046 3044 3045 3045 3044 3044 3046 3045 3044 3044 3044 3044 3043 3044 3044 3043 3043 3042 3041 3042 3042 3041 3039 3038 3038 3038 3039 3039 3040 3040 3039 3039 3038 3038 3036 3032 3029 3030 3029 3026 3024 3024 3024 3025 3024 3022 3022 3022 3023 3023 3023 3023 3022 3020 3017 3013 3010 3009 3009 3006 3004 3007 3009 3007 3006 3007 3006 3004 3001 2999 2997 2995 2993 2992 2989 2988 2986
3040 3039 3040 3040 3040 3040 3040 3041 3041 3040 3041 3042 3040 3040 3040 3040 3040 3040 3040 3039 3039 3040 3040 3038 3039 3039 3038 3038 3038 3036 3037 3038 3036 3034 3034 3033 3033 3034 3034 3035 3034 3034 3034 3033 3032 3031 3028 3024 3024 3024 3021 3020 3020 3019 3021 3020 3018 3018 3018 3017 3017 3017 3017 3017 3013 3009 3011 3007 3001 3003 3004 3001 3000 3001 3000 3000 3000 2997 2996 2997 2995 2992 2990 2988 2987 2985 2984 2982
3036 3035 3036 3036 3036 3036 3036 3036 3037 3037 3037 3037 3036 3035 3036 3036 3036 3035 3035 3035 3034 3035 3035 3033 3033 3034 3033 3035 3034 3032 3033 3032 3030 3030 3029 3028 3029 3029 3028 3029 3028 3028 3029 3028 3026 3027 3024 3019 3019 3019 3016 3016 3017 3015 3016 3016 3013 3014 3013 3012 3011 3011 3011 3009 3004 3004 3007 3003 2996 2998 3000 2996 2994 2993 2994 2994 2992 2989 2988 2988 2987 2986 2985 2983 2982 2980 2979 2977
3031 3031 3032 3032 3032 3032 3033 3033 3033 3033 3033 3034 3032 3032 3032 3031 3031 3032 3033 3032 3030 3031 3031 3027 3027 3029 3029 3030 3030 3028 3028 3027 3025 3025 3026 3024 3025 3024 3023 3023 3023 3022 3023 3022 3022 3023 3020 3014 3014 3014 3011 3010 3012 3011 3011 3011 3009 3008 3007 3007 3007 3006 3004 3001 2999 2999 3000 2996 2993 2994 2994 2992 2988 2986 2988 2988 2986 2985 2985 2983 2981 2980 2979 2978 2977 2975 2973 2971
3027 3026 3027 3027 3027 3028 3028 3028 3029 3028 3028 3029 3027 3027 3028 3027 3027 3029 3029 3028 3025 3026 3026 3023 3022 3024 3024 3025 3024 3022 3022 3023 3021 3022 3022 3021 3021 3020 3019 3018 3018 3018 3018 3017 3017 3018 3016 3011 3011 3011 3007 3005 3007 3007 3007 3007 3004 3001 3001 3001 3001 2999 2996 2995 2994 2994 2992 2989 2989 2989 2988 2986 2983 2981 2982 2982 2980 2980 2979 2978 2977 2975 2974 2973 2972 2970 2969 2966
3021 3021 3023 3022 3022 3024 3024 3023 3024 3023 3023 3024 3022 3022 3023 3023 3023 3023 3023 3022 3021 3021 3022 3019 3018 3019 3019 3019 3018 3016 3016 3018 3017 3017 3018 3018 3017 3016 3015 3014 3014 3013 3013 3013 3013 3013 3012 3008 3007 3008 3003 2999 3002 3003 3001 3001 2999 2995 2994 2994 2994 2991 2989 2989 2989 2987 2985 2983 2982 2983 2982 2980 2978 2977 2977 2977 2976 2975 2974 2973 2972 2971 2970 2969 2967 2965 2963 2961
3016 3016 3017 3017 3016 3019 3019 3018 3019 3018 3017 3018 3018 3018 3019 3018 3018 3018 3017 3017 3017 3016 3017 3016 3015 3015 3014 3014 3014 3013 3012 3012 3012 3012 3013 3012 3011 3011 3010 3009 3010 3009 3008 3008 3008 3008 3008 3005 3004 3005 2999 2993 2997 2998 2996 2997 2993 2986 2986 2987 2986 2985 2984 2983 2982 2981 2980 2978 2977 2976 2975 2974 2973 2973 2972 2972 2972 2971 2970 2969 2967 2966 2965 2964 2962 2961 2959 2957